Location: Walsall
(52.5862°N, 1.9829°W)
Time: 01:26:12
(UTC+01:00)

X-37B - Pass Details

Date: 26 June 2021
Orbit: 383 x 392 km, 45.0° (Epoch: 01 July)

Event Time Altitude Azimuth Distance (km) Brightness Sun altitude
Rises 23:22:24 0° 249° (WSW) 2,256 4.5 -10.5°
Reaches altitude 10° 23:24:46 10° 232° (SW) 1,402 3.3 -10.6°
Maximum altitude 23:27:13 21° 181° (S) 930 2.0 -10.8°
Enters shadow 23:28:10 18° 155° (SSE) 1,015 2.0 -10.9°
